Powrót do katalogu

ATLAS 5 CENTAUR DEB

LostHEO
NORAD 46867·DEBRIS·🇺🇸 United States

Wystrzelony Oct 17, 2018 z Cape Canaveral Space Force Station

Loading…

Następne Przeloty (najbliższe 24 godziny)

TLE

NieaktualneSource: Space-Track

Epoka: May 3, 2024, 03:15 UTC

1 46867U 18079DY  24124.13563215 -.00000135  00000-0  00000+0 0  9994
2 46867  12.5554  15.4104 4495580  30.1364 349.4653  2.33886264 28626

Śledź ATLAS 5 CENTAUR DEB w czasie rzeczywistym z AllMySat

Download on the App Store